Miscellaneous Local Product
Issued by NWS North Platte, NE

Home | Current Version | Previous Version | Text Only | Print | Product List | Glossary On
Versions: 1 2 3 4 5 6 7 8 9 10 11 12 13 14 15 16 17 18 19 20 21 22 23 24 25 26 27 28 29 30 31 32 33 34 35 36 37 38 39 40 41 42 43 44 45 46 47 48 49 50
000
AXUS43 KLBF 190110
MISLBF


WESTERN AND NORTH CENTRAL NEBRASKA HOURLY WEATHER ROUNDUP
NATIONAL WEATHER SERVICE NORTH PLATTE NE
700 PM CST THU DEC 18 2014

***STATIONS NOT REPORTING VARIABLES SUCH AS SKY/WEATHER OR
PRESSURE ARE PROVIDED BY THE NEBRASKA DEPARTMENT OF
ROADS...RAWS...AND APRS NETWORKS...AND ARE NOT UNDER
NATIONAL WEATHER SERVICE QUALITY CONTROL***

...OBSERVATIONS IN AND NEAR THE EASTERN PANHANDLE OF NEBRASKA...

CITY           SKY/WX    TMP DP  RH WIND       PRES   REMARKS
PINE RIDGE     CLEAR     25  19  78 CALM      30.03R
CHADRON        PTCLDY    22  17  81 SW8       30.03S WCI  12
ALLIANCE       PTCLDY    18  15  88 W7        30.03R WCI   9
SIDNEY         PTCLDY    25  19  78 W8        30.06R WCI  16
WHITECLAY        N/A     21  16  79 E6          N/A  WCI  14
CRESCENT LAKE    N/A     24  20  83 SW3         N/A
LISCO            N/A     19  13  79 W3          N/A
BIG SPRINGS      N/A     23  21  91 W3          N/A
$$

...OBSERVATIONS IN NORTH CENTRAL NEBRASKA...

CITY           SKY/WX    TMP DP  RH WIND       PRES   REMARKS
VALENTINE      FOG       14  13  95 SE5       30.06R VSB 3/4 WCI   6
THEDFORD       PTCLDY    22  20  95 CALM      30.07R FOG
AINSWORTH      CLOUDY    23  22  97 S3        30.07F FOG
O`NEILL        CLOUDY    28  27  93 CALM      30.12S
BROKEN BOW     CLOUDY    30  27  88 SW9       30.10R WCI  22
BROWNLEE         N/A     22  20  93 CALM        N/A
SPRINGVIEW       N/A     27  24  88 SW3         N/A
BREWSTER         N/A     29  28  96 S6          N/A  WCI  23
ROSE             N/A     30  30 100 MISG        N/A
SARGENT          N/A     29  27  91 CALM        N/A
COMSTOCK         N/A     33  30  90 CALM        N/A
CHAMBERS         N/A     27  24  87 CALM        N/A
$$

...OBSERVATIONS IN SOUTHWEST NEBRASKA AND FAR NORTHEAST COLORADO...

CITY           SKY/WX    TMP DP  RH WIND       PRES   REMARKS
WRAY           FAIR      24  23  97 SW6       30.09R FOG     WCI  17
IMPERIAL       MOCLDY    24  21  88 SW3       30.09R FOG
OGALLALA       PTCLDY    18  16  93 CALM      30.07S
NORTH PLATTE   PTCLDY    24  22  91 S3        30.09S FOG
MCCOOK         CLOUDY    29  27  92 SW5       30.12R WCI  24
LEXINGTON      CLOUDY    30  28  90 SW7       30.12S WCI  23
PAXTON           N/A     22  20  91 CALM        N/A
BRADY            N/A     27  25  90 CALM        N/A
GOTHENBURG       N/A     30  27  88 SW3         N/A
CALLAWAY         N/A     27  26  96 SW3         N/A
$$

...NORTH PLATTE AREA...

CITY           SKY/WX    TMP DP  RH WIND       PRES   REMARKS
AIRPORT        PTCLDY    24  22  91 S3        30.09S FOG
$$

...SOME WEATHER OBSERVATIONS FROM AROUND THE REGION...

CITY           SKY/WX    TMP DP  RH WIND       PRES   REMARKS
DENVER         PTCLDY    31  26  82 E3        30.04R
LARAMIE        MOCLDY    20  14  77 E10       30.03R WCI   9
CHEYENNE       MOCLDY    27  17  66 W8        30.03R WCI  19
SCOTTSBLUFF    CLOUDY    16  13  88 S3        30.05R
RAPID CITY     CLEAR     27  22  81 CALM      30.00R
PIERRE         CLOUDY    28  24  85 S6        30.06S WCI  22
WINNER         CLOUDY    25  22  88 S8        30.08S WCI  16
SIOUX FALLS    CLOUDY    27  23  85 S7        30.18R WCI  19
OMAHA          CLOUDY    31  26  82 SE6       30.23S WCI  25
GRAND ISLAND   CLOUDY    29  26  89 CALM      30.17R
KANSAS CITY    CLOUDY    32  29  88 NE7       30.23R WCI  26
WICHITA        CLOUDY    33  29  85 N8        30.20R WCI  26
HAYS           CLOUDY    34  23  64 CALM      30.17S
LIBERAL        CLOUDY    36  30  80 SE6       30.15R WCI  31
GOODLAND       CLEAR     25  23  92 CALM      30.09R
$$



USA.gov is the U.S. government's official web portal to all federal, state and local government web resources and services.